COSMOS 1892

Last updated on Wed Jul 02 2025 00:02:14 GMT+0000 (Coordinated Universal Time)

1 18421U 87088A 25182.55887908 .00040134 00000+0 39175-3 0 9994 2 18421 82.4800 223.3498 0006214 87.8592 272.3379 15.65989782 65366
UTC large
Height (km)
Speed (km/s)
/
Latitude / Longitude
Inclination (degrees)
Orbital Period (minutes)
Azimuth
Elevation
Range (km)
Doppler Factor

Next 0 passes for location: London (51.5072 / 0.1276)

Sorry there are no passes over London.